Weather History for Taos, NM

Change the Weather History Date:

Sunday, February 23, 2014

  Actual Average Record
Temperature  
Mean Temperature 37 °F -  
Max Temperature 57 °F 41 °F 60 °F (2002)
Min Temperature 17 °F 17 °F 8 °F (1999)
Degree Days  
Heating Degree Days 28    
Moisture  
Dew Point 6 °F    
Average Humidity 34    
Maximum Humidity 68    
Minimum Humidity 11    
Precipitation  
Precipitation 0.00 in - - ()
Sea Level Pressure  
Sea Level Pressure 30.12 in    
Wind  
Wind Speed 5 mph (NNW)    
Max Wind Speed 17 mph    
Max Gust Speed 25 mph    
Visibility 10 miles    
Events      
Averages and records for this station are not official NWS values.
T = Trace of Precipitation, MM = Missing Value Source: NWS Daily Summary

Daily Weather History Graph

Daily Weather History Graph

Search for Another Location

Airport:

Trip Planner

Search our weather history database for the weather conditions in past years. The results will help you decide how hot, cold, wet, or windy it might be!

Date:

Astronomy

Feb. 23, 2014 Rise Set
Actual Time 6:40 AM MST 5:51 PM MST
Civil Twilight 6:14 AM MST 6:17 PM MST
Nautical Twilight 5:44 AM MST 6:47 PM MST
Astronomical Twilight 5:15 AM MST 7:17 PM MST
Moon 1:37 AM MST (2/23) 12:01 PM MST (2/23)
Length of Visible Light 12h 02m
Length of Day
11h 10m
Last Quarter, 38% of the Moon is Illuminated
Feb 23
Last Quarter
Mar 1
New
Mar 8
First Quarter
Mar 16
Full
Mar 23
Last Quarter

Hourly Weather History & Observations

Time (MST) Temp. Windchill Dew Point Humidity Pressure Visibility Wind Dir Wind Speed Gust Speed Precip Events Conditions
12:15 AM 26.6 °F 21.2 °F 8.6 °F 47% 30.06 in 10.0 mi ENE 4.6 mph - N/A   Clear
12:35 AM 24.8 °F 20.5 °F 10.4 °F 54% 30.06 in 10.0 mi NE 3.5 mph - N/A   Clear
12:55 AM 23.0 °F 11.7 °F 8.6 °F 54% 30.06 in 10.0 mi ESE 11.5 mph - N/A   Clear
1:15 AM 23.0 °F 13.1 °F 8.6 °F 54% 30.06 in 10.0 mi East 9.2 mph - N/A   Clear
1:35 AM 23.0 °F 11.7 °F 8.6 °F 54% 30.06 in 10.0 mi East 11.5 mph - N/A   Clear
1:55 AM 24.8 °F 15.3 °F 10.4 °F 54% 30.07 in 10.0 mi ESE 9.2 mph - N/A   Clear
2:15 AM 26.6 °F 21.2 °F 10.4 °F 51% 30.07 in 10.0 mi East 4.6 mph - N/A   Clear
2:35 AM 26.6 °F - 10.4 °F 51% 30.07 in 10.0 mi Calm Calm - N/A   Clear
2:55 AM 26.6 °F 22.6 °F 12.2 °F 55% 30.07 in 10.0 mi East 3.5 mph - N/A   Clear
3:15 AM 24.8 °F - 10.4 °F 54% 30.07 in 10.0 mi Calm Calm - N/A   Clear
3:35 AM 21.2 °F - 10.4 °F 63% 30.08 in 10.0 mi Calm Calm - N/A   Clear
3:55 AM 21.2 °F 14.9 °F 8.6 °F 58% 30.08 in 10.0 mi NE 4.6 mph - N/A   Clear
4:15 AM 21.2 °F 14.9 °F 8.6 °F 58% 30.09 in 10.0 mi NE 4.6 mph - N/A   Clear
4:35 AM 21.2 °F 13.6 °F 8.6 °F 58% 30.09 in 10.0 mi ENE 5.8 mph - N/A   Clear
4:55 AM 21.2 °F 14.9 °F 8.6 °F 58% 30.10 in 10.0 mi North 4.6 mph - N/A   Clear
5:15 AM 19.4 °F 12.8 °F 8.6 °F 63% 30.11 in 10.0 mi North 4.6 mph - N/A   Clear
5:35 AM 21.2 °F 16.4 °F 8.6 °F 58% 30.11 in 10.0 mi North 3.5 mph - N/A   Clear
5:55 AM 21.2 °F - 8.6 °F 58% 30.11 in 10.0 mi Calm Calm - N/A   Clear
6:15 AM 21.2 °F 16.4 °F 6.8 °F 54% 30.12 in 10.0 mi NNE 3.5 mph - N/A   Clear
6:35 AM 21.2 °F 14.9 °F 8.6 °F 58% 30.12 in 10.0 mi North 4.6 mph - N/A   Clear
6:55 AM 19.4 °F 14.3 °F 6.8 °F 58% 30.13 in 10.0 mi North 3.5 mph - N/A   Clear
7:15 AM 17.6 °F 9.3 °F 8.6 °F 68% 30.14 in 10.0 mi North 5.8 mph - N/A   Clear
7:35 AM 23.0 °F 18.4 °F 10.4 °F 59% 30.14 in 10.0 mi North 3.5 mph - N/A   Clear
7:55 AM 28.4 °F - 12.2 °F 51% 30.15 in 10.0 mi Calm Calm - N/A   Clear
8:15 AM 32.0 °F 26.4 °F 12.2 °F 44% 30.16 in 10.0 mi North 5.8 mph - N/A   Clear
8:35 AM 33.8 °F 30.8 °F 12.2 °F 41% 30.17 in 10.0 mi NNW 3.5 mph - N/A   Clear
8:55 AM 37.4 °F - 12.2 °F 36% 30.17 in 10.0 mi Calm Calm - N/A   Clear
9:15 AM 39.2 °F - 14.0 °F 36% 30.17 in 10.0 mi Calm Calm - N/A   Clear
9:35 AM 42.8 °F - 12.2 °F 29% 30.17 in 10.0 mi Calm Calm - N/A   Clear
9:55 AM 44.6 °F 43.1 °F 12.2 °F 27% 30.17 in 10.0 mi WSW 3.5 mph - N/A   Clear
10:15 AM 46.4 °F 41.9 °F 10.4 °F 23% 30.17 in 10.0 mi West 9.2 mph - N/A   Clear
10:35 AM 46.4 °F 44.3 °F 10.4 °F 23% 30.17 in 10.0 mi SW 4.6 mph - N/A   Clear
10:55 AM 48.2 °F - 10.4 °F 22% 30.17 in 10.0 mi WSW 4.6 mph - N/A   Clear
11:15 AM 48.2 °F - 10.4 °F 22% 30.16 in 10.0 mi Calm Calm - N/A   Clear
11:35 AM 50.0 °F - 10.4 °F 20% 30.15 in 10.0 mi North 6.9 mph - N/A   Clear
11:55 AM 50.0 °F - 10.4 °F 20% 30.15 in 10.0 mi Calm Calm - N/A   Clear
12:15 PM 51.8 °F - 8.6 °F 18% 30.14 in 10.0 mi Calm Calm - N/A   Clear
12:35 PM 51.8 °F - 10.4 °F 19% 30.12 in 10.0 mi NW 5.8 mph - N/A   Clear
12:55 PM 51.8 °F - 8.6 °F 18% 30.11 in 10.0 mi Calm Calm - N/A   Clear
1:15 PM 51.8 °F - 8.6 °F 18% 30.11 in 10.0 mi West 10.4 mph - N/A   Clear
1:35 PM 53.6 °F - 8.6 °F 16% 30.11 in 10.0 mi West 8.1 mph - N/A   Clear
1:55 PM 53.6 °F - 6.8 °F 15% 30.10 in 10.0 mi West 5.8 mph - N/A   Clear
2:15 PM 53.6 °F - 6.8 °F 15% 30.09 in 10.0 mi West 4.6 mph 16.1 mph N/A   Clear
2:35 PM 55.4 °F - 6.8 °F 14% 30.08 in 10.0 mi WSW 8.1 mph - N/A   Clear
2:55 PM 55.4 °F - 6.8 °F 14% 30.08 in 10.0 mi WSW 16.1 mph 20.7 mph N/A   Clear
3:15 PM 55.4 °F - 5.0 °F 13% 30.07 in 10.0 mi West 16.1 mph 25.3 mph N/A   Clear
3:35 PM 57.2 °F - 5.0 °F 12% 30.08 in 10.0 mi West 13.8 mph - N/A   Clear
3:55 PM 55.4 °F - 3.2 °F 12% 30.08 in 10.0 mi West 13.8 mph - N/A   Clear
4:15 PM 55.4 °F - 3.2 °F 12% 30.08 in 10.0 mi West 10.4 mph - N/A   Clear
4:35 PM 55.4 °F - 3.2 °F 12% 30.08 in 10.0 mi West 16.1 mph 21.9 mph N/A   Clear
4:55 PM 55.4 °F - 1.4 °F 11% 30.09 in 10.0 mi West 17.3 mph 20.7 mph N/A   Clear
5:15 PM 53.6 °F - 1.4 °F 12% 30.09 in 10.0 mi West 16.1 mph - N/A   Clear
5:35 PM 51.8 °F - -0.4 °F 12% 30.10 in 10.0 mi West 11.5 mph - N/A   Clear
5:55 PM 46.4 °F 41.5 °F -2.2 °F 13% 30.11 in 10.0 mi West 10.4 mph - N/A   Clear
6:15 PM 42.8 °F 40.1 °F -4.0 °F 14% 30.12 in 10.0 mi West 4.6 mph - N/A   Clear
6:35 PM 41.0 °F - -2.2 °F 16% 30.12 in 10.0 mi Calm Calm - N/A   Clear
6:55 PM 41.0 °F - -0.4 °F 18% 30.13 in 10.0 mi Calm Calm - N/A   Clear
7:15 PM 42.8 °F - -0.4 °F 16% 30.13 in 10.0 mi Calm Calm - N/A   Clear
7:35 PM 39.2 °F 35.0 °F -0.4 °F 19% 30.14 in 10.0 mi South 5.8 mph - N/A   Clear
7:55 PM 39.2 °F 37.0 °F -0.4 °F 19% 30.14 in 10.0 mi WSW 3.5 mph - N/A   Clear
8:15 PM 28.4 °F 23.3 °F -5.8 °F 23% 30.15 in 10.0 mi NNE 4.6 mph - N/A   Clear
8:35 PM 30.2 °F - -0.4 °F 27% 30.16 in 10.0 mi Calm Calm - N/A   Clear
8:55 PM 30.2 °F 26.7 °F 1.4 °F 29% 30.16 in 10.0 mi ENE 3.5 mph - N/A   Clear
9:15 PM 26.6 °F 21.2 °F -0.4 °F 31% 30.15 in 10.0 mi SE 4.6 mph - N/A   Clear
9:35 PM 26.6 °F 21.2 °F 1.4 °F 34% 30.16 in 10.0 mi East 4.6 mph - N/A   Clear
9:55 PM 24.8 °F 17.9 °F -0.4 °F 34% 30.15 in 10.0 mi SSE 5.8 mph - N/A   Clear
10:15 PM 24.8 °F 19.1 °F -0.4 °F 34% 30.14 in 10.0 mi WNW 4.6 mph - N/A   Clear
10:35 PM 24.8 °F 15.3 °F 1.4 °F 36% 30.14 in 10.0 mi NNE 9.2 mph - N/A   Clear
10:55 PM 26.6 °F 17.5 °F 3.2 °F 37% 30.14 in 10.0 mi NNE 9.2 mph - N/A   Clear
11:15 PM 26.6 °F 20.0 °F 3.2 °F 37% 30.14 in 10.0 mi North 5.8 mph - N/A   Clear
11:35 PM 26.6 °F 21.2 °F 1.4 °F 34% 30.14 in 10.0 mi East 4.6 mph - N/A   Clear
11:55 PM 28.4 °F 24.6 °F 5.0 °F 37% 30.14 in 10.0 mi SE 3.5 mph - N/A   Clear